Regional Weather Roundup
Issued by NWS Sioux Falls, SD

Home | Current Version | Previous Version | Text Only | Print | Product List | Glossary Off
Versions: 1 2 3 4 5 6 7 8 9 10 11 12 13 14 15 16 17 18 19 20 21 22 23 24 25 26 27 28 29 30 31 32 33 34 35 36 37 38 39 40 41 42 43 44 45 46 47 48 49 50

000
ASUS43 KFSD 312110
RWRFSD

WEATHER ROUNDUP FOR SE SOUTH DAKOTA/SW MINNESOTA/NW IOWA
NATIONAL WEATHER SERVICE SIOUX FALLS SD
400 PM CDT TUE MAY 31 2016

NOTE: "FAIR" INDICATES FEW OR NO CLOUDS BELOW 12,000 FEET WITH NO
SIGNIFICANT WEATHER AND OR OBSTRUCTIONS TO VISIBILITY.


SDZ038>040-050-052>070-312200-
SOUTHEAST SOUTH DAKOTA

CITY           SKY/WX    TMP DP  RH WIND       PRES   REMARKS
BROOKINGS      MOSUNNY   69  46  43 W17G24    29.85F
CHAMBERLAIN    MOSUNNY   75  47  38 W18G29    29.87S
HURON          MOSUNNY   73  44  35 W21G29    29.83F
MADISON        FAIR      68  48  49 SW17G24   29.88F
MITCHELL       SUNNY     74  51  44 SW12G24   29.86F
SIOUX FALLS    MOSUNNY   71  47  42 W15G21    29.89F
WINNER         FAIR      74  44  34 NW18G28   29.88S
YANKTON        SUNNY     72  46  40 SW12      29.90F
$$

MNZ071-072-080-081-089-090-097-098-312200-
SOUTHWEST MINNESOTA

CITY           SKY/WX    TMP DP  RH WIND       PRES   REMARKS
FAIRMONT       CLOUDY    72  54  53 W15       29.88F
JACKSON        SUNNY     72  48  43 W9G20     29.89S
LUVERNE        SUNNY     70  41  35 W14       29.90F
MARSHALL       MOSUNNY   72  46  39 W20       29.85F
MONTEVIDEO     SUNNY     73  48  40 NW10G17   29.86S
PIPESTONE      SUNNY     70  46  43 W13       29.89F
REDWOOD FALLS  SUNNY     73  48  41 W13       29.84F
TRACY          SUNNY     72  51  48 W12G18    29.88F
WINDOM         SUNNY     72  52  49 W12       29.88F
WORTHINGTON    MOSUNNY   70  48  45 W10G18    29.90F
$$

IAZ001>003-012>014-020>022-031-032-NEZ013-014-SDZ071-312200-
NORTHWEST IOWA

CITY           SKY/WX    TMP DP  RH WIND       PRES   REMARKS
CHEROKEE       MOSUNNY   72  52  48 NW6G16    29.91S
DENISON        MOSUNNY   70  59  68 NW8G16    29.90F
ESTHERVILLE    CLOUDY    71  57  61 W13       29.89F
LE MARS        SUNNY     72  50  46 W8        29.92F
ORANGE CITY    SUNNY     72  52  49 W8        29.91F
SHELDON        SUNNY     72  52  49 NW13      29.89F
SIOUX CITY     SUNNY     77  47  34 NW10      29.91F
SPENCER        MOSUNNY   72  52  49 W13       29.90F
STORM LAKE       N/A     72  54  53 W15       29.92S
$$

ABBREVIATIONS USED IN REMARKS
   TC - TEMPERATURE IN CELSIUS
  WCI - WIND CHILL INDEX
   HX - HEAT INDEX
  VSB - VISIBILITY




USA.gov is the U.S. government's official web portal to all federal, state and local government web resources and services.